Regional Weather Roundup
Issued by NWS

Home | Current Version | Previous Version | Graphics & Text | Print | Product List | Glossary On
Versions: 1 2 3 4 5 6 7 8 9 10 11 12 13 14 15 16 17 18 19 20 21 22 23 24 25 26 27 28 29 30 31 32 33 34 35 36 37 38 39 40 41 42 43 44 45 46 47 48 49 50
000
ASUS43 KMKX 122321
RWRWI

WISCONSIN REGIONAL WEATHER ROUNDUP
NATIONAL WEATHER SERVICE MILWAUKEE/SULLIVAN WI
500 PM CST FRI FEB 12 2016

NOTE: "FAIR" INDICATES FEW OR NO CLOUDS BELOW 12,000 FEET WITH NO
SIGNIFICANT WEATHER AND/OR OBSTRUCTIONS TO VISIBILITY.

WIZ001-002-006>008-014>016-023>028-130000-
NORTHWEST WISCONSIN

CITY           SKY/WX    TMP DP  RH WIND       PRES   REMARKS
SUPERIOR ARPT  CLEAR      4 -14  42 NW16G22   30.49R WCI -15
ASHLAND        CLEAR      3 -12  49 NW14      30.43R WCI -15
HAYWARD        CLEAR      3 -17  39 NW12G18   30.41R WCI -13
SIREN          CLEAR      5 -17  36 NW12      30.48R WCI -11
CUMBERLAND     CLEAR      3 -17  39 NW13      30.41R WCI -14
RICE LAKE      CLEAR      6 -16  37 NW12      30.44R WCI -10
CHETEK         CLEAR      5 -13  43 NW5       30.42R WCI  -4
LADYSMITH      CLEAR      4 -14  44 NW13G21   30.40R WCI -13
EAU CLAIRE     CLEAR      7 -14  37 NW12G21   30.43R WCI  -8
MENOMONIE      CLEAR      8 -14  36 NW12      30.46R WCI  -7
NEW RICHMOND   CLEAR      6 -11  45 NW13G23   30.47R WCI -10
OSCEOLA        CLEAR      7 -12  42 W12G21    30.52R WCI  -8
$$

WIZ003>005-009-010-017-018-130000-
NORTH CENTRAL WISCONSIN

CITY           SKY/WX    TMP DP  RH WIND       PRES   REMARKS
MANITOWISH WTR CLOUDY    -3 -10  71 NW15      30.29R WCI -23
ARBOR VITAE    CLEAR      0 -10  63 NW9       30.28R WCI -15
WOODRUFF       CLEAR      0 -10  63 NW9       30.28R WCI -15
RHINELANDER    PTCLDY    -1 -15  51 NW9G21    30.27R WCI -16
EAGLE RIVER    LGT SNOW  -1  -8  70 NW13      30.25R WCI -19
LAND O LAKES   CLOUDY    -1  -8  72 NW8       30.25R HAZE    WCI -15
PHILLIPS       CLEAR      0 -14  53 NW14G20   30.32R WCI -19
TOMAHAWK       MOCLDY     0 -11  61 NW10      30.30R WCI -16
MEDFORD        CLEAR      2 -13  49 NW15      30.30R WCI -16
MERRILL        PTCLDY   N/A N/A N/A N15G21    30.31R
$$

WIZ029-030-035-036-043>047-130000-
CENTRAL WISCONSIN

CITY           SKY/WX    TMP DP  RH WIND       PRES   REMARKS
WAUSAU         PTCLDY     5 -11  47 NW15G26   30.29R WCI -13
MOSINEE        PTCLDY     5  -9  51 NW20G29   30.31R WCI -15
MARSHFIELD     CLEAR      5 -13  43 NW23      30.31R WCI -17
STEVENS POINT  CLEAR      5 -13  43 NW13G25   30.31R WCI -11
WAUPACA        CLEAR     11 -12  34 NW20G25   30.30R WCI  -7
WAUTOMA        CLEAR      9 -12  38 NW20G26   30.32R WCI -10
WISC RAPIDS    CLEAR      7 -12  41 N22G28    30.34R WCI -14
CAMP DOUGLAS   CLEAR      9 -10  41 NW20G29   30.35R WCI -10
$$

WIZ011>013-019>022-031-037>040-048>050-130000-
NORTHEAST WISCONSIN

CITY           SKY/WX    TMP DP  RH WIND       PRES   REMARKS
ANTIGO         PTCLDY    -1 -12  57 NW16G30   30.25R WCI -21
SHAWANO        PTCLDY     8 -12  39 NW15G24   30.31R WCI -10
OCONTO         CLOUDY     7  -8  50 NW15G23   30.29R WCI -10
STURGEON BAY   PTCLDY     5 -11  47 NW24G30   30.27R WCI -17
GREEN BAY      CLEAR      8  -8  48 NW14      30.28R WCI  -8
MANITOWOC      MOCLDY    10  -5  50 NW20G31   30.24R WCI  -9
APPLETON       PTCLDY     9 -13  37 NW17G29   30.25R WCI -10
CLINTONVILLE   CLEAR      9 -13  37 NW15G23   30.30R WCI  -8
OSHKOSH        PTCLDY    10  -9  42 NW17G26   30.26R WCI  -8
$$

WIZ032>034-041-042-053>061-130000-
SOUTHWEST WISCONSIN

CITY           SKY/WX    TMP DP  RH WIND       PRES   REMARKS
LA CROSSE      CLEAR     10  -7  46 NW18G29   30.42R WCI  -8
SPARTA         CLEAR     10 -10  40 N13G24    30.40R WCI  -5
VIROQUA        CLEAR      9  -6  49 NW21      30.33R WCI -11
BOSCOBEL       CLEAR     15  -7  37 N17G28    30.39R WCI  -1
PRAIRIE DU CHI CLEAR     13  -6  42 NW14      30.41R WCI  -2
PLATTEVILLE    CLEAR     15  -1  50 NW20G25   30.32R WCI  -3
$$

WIZ056-057-062-063-064-067-068-130000-
SOUTH CENTRAL WISCONSIN

CITY           SKY/WX    TMP DP  RH WIND       PRES   REMARKS
REEDSBURG      CLEAR     11  -8  42 NW12G23   30.33R WCI  -4
BARABOO/DELLS  CLEAR     11 -10  39 NW16G24   30.31R WCI  -6
LONE ROCK      CLEAR     13  -7  40 NW20G31   30.36R WCI  -5
MINERAL POINT  CLEAR     16  -6  38 NW15G26   30.30R WCI   1
MADISON        PTCLDY    12  -6  44 NW14G24   30.29R WCI  -3
MIDDLETON      CLEAR     15  -4  43 NW15G25   30.30R WCI  -1
WATERTOWN      CLEAR     12  -5  45 NW20G31   30.27R WCI  -6
MONROE         CLEAR     18   0  45 NW17G26   30.27R WCI   2
JANESVILLE     PTCLDY    18  -4  38 NW23G30   30.27R WCI   0
$$

WIZ051-052-058>065-066-070>072-130000-
SOUTHEAST WISCONSIN

CITY           SKY/WX    TMP DP  RH WIND       PRES   REMARKS
MILWAUKEE      PTCLDY    14  -5  42 NW17G28   30.24R WCI  -3
WAUKESHA       PTCLDY    10  -8  44 NW20G31   30.24R WCI  -8
MILWAUKEE/TIMM PTCLDY    12  -6  44 NW20G30   30.26R WCI  -6
RACINE         PTCLDY    15  -5  40 NW15G25   30.25R WCI   0
BURLINGTON     CLEAR     13  -5  43 NW18G25   30.25R WCI  -4
KENOSHA        CLEAR     16  -5  39 NW24G35   30.23R WCI  -2
FOND DU LAC    CLEAR     11  -8  42 NW20G26   30.26R WCI  -7
SHEBOYGAN      MOCLDY    11  -7  44 NW16G28   30.24R WCI  -6
WEST BEND      MOCLDY    12  -8  40 NW15G25   30.25R WCI  -4
JUNEAU         CLEAR     10  -6  48 NW16G25   30.28R WCI  -7
$$

LSZ147-162-130000-
LAKE SUPERIOR

STATION/POSITION TIME  TEMP    WIND        PRES    WAVE
                       AIR SEA DIR/SP/G            HT/PER
                 (UTC) (F)     (DEG/KT/KT) (MB)    (FT/S)
DEVILS ISLAND    2300    4     320/ 17/ 21 1032.3R
SAXON HARBOR     2240    5                 1029.5R
$$

LMZ867-665-643>646-130000-
LAKE MICHIGAN

STATION/POSITION TIME  TEMP    WIND        PRES    WAVE
                       AIR SEA DIR/SP/G            HT/PER
                 (UTC) (F)     (DEG/KT/KT) (MB)    (FT/S)
CHAMBERS ISLAND  2200    7     310/ 18/ 25 1023.4R
SISTER BAY       2249    6     350/ 30/ 38   N/A
ALGOMA LAKESHORE 2211          320/ 19/ 30   N/A
KEWAUNEE LAKESHO 2200   11     320/ 15/ 26 1021.8R
SHEBOYGAN LAKESH 2300   12     320/ 22/ 28 1025.8R
PORT WASHINGTON  2200   15     300/ 10/ 21 1024.0R
MILWAUKEE LAKESH 2310   14     330/ 15/ 26   N/A
KENOSHA   LAKESH 2300   16     330/ 16/ 31 1023.7R
$$

TC  - TEMPERATURE IN CELSIUS
VSB - VISIBILITY IN STATUTE MILES
WCI - WIND CHILL INDEX
HX  - HEAT INDEX




USA.gov is the U.S. government's official web portal to all federal, state and local government web resources and services.